KC1UIX-13 Weather Reports


Display with metric or nautical units.
time (UTC)temp
F
wind
direction
speed
MPH
gust
MPH
rain 1hr
in
rain 24hr
in
rain mn
in
humidity
%
barometer
mb
20260906101040 54 1 1.0 3.0 0.00 0.09 0.00 93 1014.3
20260906100020 54 344 1.0 3.0 0.00 0.09 0.00 93 1014.2
20260906095017 54 341 1.0 2.0 0.00 0.09 0.00 93 1014.1
20260906094017 54 349 1.0 3.0 0.00 0.09 0.00 93 1014.1
20260906093017 54 347 1.0 4.0 0.00 0.09 0.00 93 1014.0
20260906092021 54 332 0.0 1.0 0.00 0.09 0.00 92 1013.9
20260906091021 55 293 0.0 1.0 0.00 0.09 0.00 92 1013.8
20260906090058 55 278 0.0 1.0 0.00 0.09 0.00 92 1013.8
20260906085018 55 265 1.0 2.0 0.00 0.09 0.00 91 1013.9
20260906084039 55 257 1.0 2.0 0.00 0.09 0.00 91 1013.9
20260906083019 55 253 0.0 1.0 0.00 0.09 0.00 90 1013.7
20260906082018 55 333 0.0 3.0 0.00 0.09 0.00 91 1013.7
20260906081019 55 324 1.0 2.0 0.00 0.09 0.00 91 1013.5
20260906080019 55 288 0.0 2.0 0.00 0.09 0.00 90 1013.2
20260906075019 55 250 0.0 1.0 0.00 0.09 0.00 90 1013.3
20260906074019 55 355 0.0 2.0 0.00 0.09 0.00 90 1013.5
20260906073017 55 347 1.0 3.0 0.00 0.09 0.00 91 1013.6
20260906072020 55 356 1.0 3.0 0.00 0.09 0.00 91 1013.4
20260906071020 55 356 1.0 2.0 0.00 0.09 0.00 91 1013.2
20260906070020 55 2 1.0 4.0 0.00 0.09 0.00 91 1013.2
20260906065017 55 5 1.0 3.0 0.00 0.09 0.00 92 1013.1
20260906064017 54 4 1.0 3.0 0.00 0.09 0.00 92 1013.1
20260906063018 54 1 1.0 3.0 0.00 0.09 0.00 93 1013.0
20260906062021 54 3 1.0 2.0 0.00 0.09 0.00 93 1013.0
20260906061018 54 359 0.0 3.0 0.00 0.09 0.00 93 1013.0
20260906060018 54 358 0.0 1.0 0.00 0.09 0.00 93 1013.1
20260906055018 55 325 0.0 1.0 0.00 0.09 0.00 93 1013.1
20260906054018 55 358 0.0 2.0 0.00 0.09 0.00 93 1013.2
20260906053038 55 0 0.0 1.0 0.00 0.09 0.00 94 1013.2
20260906052018 55 4 0.0 2.0 0.00 0.09 0.00 94 1013.2
20260906051019 55 4 1.0 2.0 0.00 0.09 0.00 94 1013.3
20260906050019 55 349 0.0 2.0 0.00 0.09 0.00 94 1013.2
20260906045019 55 359 0.0 1.0 0.00 0.09 0.00 94 1013.2
20260906044019 56 359 0.0 2.0 0.00 0.09 0.00 94 1013.0
20260906043019 56 332 0.0 1.0 0.00 0.09 0.00 94 1013.0
20260906042019 56 322 0.0 1.0 0.00 0.09 0.00 94 1013.1
20260906041020 57 323 0.0 1.0 0.00 0.09 0.00 94 1013.1
20260906040020 57 327 0.0 1.0 0.00 0.09 0.00 94 1013.1
20260906035017 57 345 0.0 2.0 0.00 0.09 0.09 94 1013.1
20260906034017 57 358 0.0 1.0 0.00 0.09 0.09 94 1012.9
20260906033040 57 353 0.0 1.0 0.00 0.09 0.09 94 1012.8
20260906032020 58 291 0.0 1.0 0.00 0.09 0.09 94 1012.9
20260906031038 58 353 0.0 1.0 0.00 0.09 0.09 94 1012.8
20260906030018 59 2 0.0 3.0 0.00 0.09 0.09 94 1012.8
20260906025018 59 343 0.0 1.0 0.00 0.09 0.09 94 1012.8
20260906024021 59 356 0.0 1.0 0.00 0.09 0.09 94 1012.8
20260906023039 59 326 0.0 1.0 0.00 0.09 0.09 94 1012.7
20260906022038 59 7 0.0 2.0 0.00 0.09 0.09 94 1012.8
20260906021019 59 306 0.0 1.0 0.00 0.09 0.09 93 1012.7
20260906020019 59 0.0 0.0 0.00 0.09 0.09 93 1012.6
20260906015019 60 308 0.0 1.0 0.00 0.09 0.09 93 1012.7
20260906014019 60 329 0.0 1.0 0.00 0.09 0.09 93 1012.8
20260906013019 60 349 0.0 1.0 0.00 0.09 0.09 93 1012.8
20260906012020 61 320 0.0 2.0 0.00 0.09 0.09 93 1012.8
20260906011037 61 314 0.0 0.0 0.00 0.09 0.09 93 1012.8
20260906010016 61 312 0.0 1.0 0.00 0.09 0.09 93 1012.7
20260906005020 61 10 0.0 1.0 0.00 0.09 0.09 93 1012.7
20260906004020 61 53 0.0 1.0 0.00 0.09 0.09 92 1012.6
20260906003040 61 3 0.0 1.0 0.00 0.09 0.09 92 1012.5
20260906002017 61 289 0.0 0.0 0.00 0.09 0.09 92 1012.5
20260906001017 61 348 0.0 1.0 0.00 0.09 0.09 91 1012.5
20260906000021 62 0.0 0.0 0.00 0.09 0.09 91 1012.4
20260905235021 62 26 0.0 1.0 0.00 0.09 0.09 90 1012.3
20260905234018 62 0.0 0.0 0.00 0.09 0.09 90 1012.2
20260905233018 63 331 0.0 1.0 0.00 0.09 0.09 89 1012.2
20260905232018 63 344 0.0 1.0 0.00 0.09 0.09 88 1012.0
20260905231039 64 0.0 0.0 0.00 0.09 0.09 87 1012.1
20260905230019 64 244 0.0 1.0 0.00 0.09 0.09 86 1012.1
20260905225019 64 253 0.0 2.0 0.00 0.09 0.09 86 1012.1
20260905224019 64 248 1.0 2.0 0.00 0.09 0.09 84 1012.0
20260905223019 65 239 0.0 2.0 0.00 0.09 0.09 83 1012.0
20260905222019 65 248 0.0 2.0 0.00 0.09 0.09 82 1011.9
20260905221017 65 247 1.0 3.0 0.00 0.09 0.09 81 1011.8
20260905220020 65 248 1.0 2.0 0.00 0.09 0.09 82 1011.6
20260905215040 65 237 1.0 3.0 0.00 0.09 0.09 83 1011.6
20260905214021 64 233 1.0 2.0 0.00 0.09 0.09 84 1011.5
20260905213018 64 221 1.0 3.0 0.00 0.09 0.09 85 1011.5
20260905212017 64 242 1.0 4.0 0.00 0.09 0.09 86 1011.5
20260905211018 65 234 1.0 3.0 0.00 0.09 0.09 85 1011.4
20260905210021 65 213 1.0 3.0 0.00 0.17 0.09 85 1011.3
20260905205059 65 245 1.0 2.0 0.00 0.17 0.09 84 1011.3
20260905204019 65 223 0.0 2.0 0.00 0.17 0.09 84 1011.2
20260905203019 65 193 1.0 3.0 0.00 0.17 0.09 84 1011.1
20260905202019 66 200 1.0 3.0 0.00 0.17 0.09 83 1011.0
20260905201019 66 189 1.0 4.0 0.00 0.17 0.09 83 1011.0
20260905200019 66 213 1.0 4.0 0.00 0.17 0.09 83 1010.9
20260905195019 67 222 1.0 4.0 0.00 0.17 0.09 82 1010.9
20260905194020 68 236 1.0 3.0 0.00 0.17 0.09 80 1011.0
20260905193019 68 237 0.0 2.0 0.00 0.17 0.09 83 1011.0
20260905192019 68 200 1.0 4.0 0.00 0.17 0.09 80 1010.9
20260905191100 68 200 1.0 3.0 0.00 0.17 0.09 82 1011.1
20260905190021 67 214 1.0 3.0 0.00 0.17 0.09 84 1011.0
20260905185021 68 224 1.0 4.0 0.00 0.17 0.09 85 1010.9
20260905184020 68 218 0.0 2.0 0.00 0.17 0.09 86 1010.9
20260905183017 67 224 0.0 2.0 0.00 0.17 0.09 85 1010.9
20260905182018 67 262 0.0 2.0 0.00 0.17 0.09 86 1010.9
20260905181020 67 317 0.0 2.0 0.00 0.17 0.09 86 1010.9
20260905180021 67 346 1.0 3.0 0.00 0.17 0.09 87 1010.9
20260905175018 67 329 0.0 2.0 0.09 0.17 0.09 88 1011.0
20260905174018 67 8 0.0 3.0 0.09 0.17 0.09 88 1011.0
20260905173018 67 358 1.0 3.0 0.09 0.17 0.09 89 1011.0
20260905172039 66 345 0.0 2.0 0.09 0.17 0.09 88 1011.0
20260905171039 67 268 0.0 2.0 0.09 0.17 0.09 84 1011.0
20260905170019 70 310 0.0 2.0 0.09 0.17 0.09 77 1011.0
20260905165019 72 342 1.0 3.0 0.00 0.08 0.00 69 1010.7
20260905164020 71 340 2.0 5.0 0.00 0.08 0.00 69 1010.7
20260905163020 69 357 1.0 4.0 0.00 0.08 0.00 74 1010.7
20260905162017 69 356 1.0 4.0 0.00 0.08 0.00 75 1010.8
20260905161020 69 5 2.0 5.0 0.00 0.08 0.00 74 1010.9
20260905160020 70 2 1.0 5.0 0.00 0.08 0.00 72 1010.9
20260905155020 70 332 1.0 4.0 0.00 0.08 0.00 73 1010.9
20260905154018 69 8 1.0 4.0 0.00 0.08 0.00 75 1011.0
20260905153017 68 309 0.0 2.0 0.00 0.08 0.00 77 1011.0
20260905152017 67 11 1.0 6.0 0.00 0.08 0.00 79 1011.0
20260905151021 67 322 0.0 4.0 0.00 0.08 0.00 81 1010.9
20260905150018 67 358 0.0 3.0 0.00 0.08 0.00 81 1010.9
20260905145018 66 4 0.0 3.0 0.00 0.08 0.00 80 1010.8
20260905144039 67 353 0.0 2.0 0.00 0.08 0.00 80 1010.8
20260905143018 67 313 0.0 2.0 0.00 0.08 0.00 80 1010.6
20260905142018 67 359 0.0 2.0 0.00 0.08 0.00 79 1010.5
20260905141019 67 12 2.0 5.0 0.00 0.08 0.00 78 1010.4
20260905140039 67 13 1.0 5.0 0.00 0.08 0.00 79 1010.3
20260905135019 66 3 1.0 4.0 0.00 0.08 0.00 80 1010.2
20260905134059 66 9 1.0 4.0 0.00 0.08 0.00 81 1010.0
20260905133019 65 9 2.0 5.0 0.00 0.08 0.00 81 1009.9
20260905132017 65 360 2.0 6.0 0.00 0.08 0.00 82 1009.8
20260905131020 65 7 2.0 6.0 0.00 0.08 0.00 83 1009.7
20260905130020 64 6 2.0 4.0 0.00 0.08 0.00 84 1009.6
20260905125020 64 1 2.0 5.0 0.00 0.08 0.00 84 1009.6
20260905124020 64 3 2.0 5.0 0.00 0.08 0.00 85 1009.5
20260905123017 63 0 1.0 4.0 0.00 0.08 0.00 87 1009.4
20260905122018 63 3 2.0 5.0 0.00 0.08 0.00 88 1009.3
20260905121021 62 3 2.0 4.0 0.00 0.08 0.00 89 1009.3
20260905120020 61 5 1.0 4.0 0.00 0.08 0.00 91 1009.3
20260905115018 60 2 1.0 3.0 0.00 0.08 0.00 92 1009.3
20260905114018 60 3 1.0 3.0 0.00 0.08 0.00 93 1009.3
20260905113019 59 5 2.0 4.0 0.00 0.08 0.00 93 1009.2
20260905112018 58 8 1.0 3.0 0.00 0.08 0.00 94 1009.2
20260905111041 57 354 1.0 3.0 0.00 0.08 0.00 93 1009.0
20260905110019 57 328 0.0 2.0 0.00 0.08 0.00 93 1008.9
20260905105039 57 252 0.0 0.0 0.00 0.08 0.00 93 1008.8
20260905104019 57 357 0.0 2.0 0.00 0.08 0.00 93 1008.8
20260905103019 57 9 0.0 1.0 0.00 0.08 0.00 93 1008.8
20260905102017 57 14 0.0 2.0 0.00 0.08 0.00 92 1008.7